QPF
0.00 0.00 0.01 0.01 0.01 0.01 0.01 0.01 0.01 0.01 0.01 0.01 0.02 0.01 0.01 0.01 0.01 0.02 0.02 0.02 0.03 0.03 0.02 0.03 0.03 0.04 0.04 0.03 0.04 0.05 0.05 0.05 0.05 0.04 0.05 0.05 0.05 0.07 0.08 0.07 0.07 0.07 0.07
0.00 0.00 0.01 0.01 0.01 0.01 0.01 0.01 0.01 0.01 0.01 0.01 0.01 0.02 0.01 0.01 0.01 0.01 0.01 0.02 0.03 0.04 0.03 0.02 0.03 0.03 0.04 0.04 0.04 0.04 0.05 0.05 0.05 0.05 0.03 0.03 0.04 0.05 0.06 0.06 0.05 0.05 0.05
0.00 0.00 0.00 0.01 0.01 0.02 0.02 0.01 0.01 0.01 0.01 0.01 0.01 0.01 0.01 0.01 0.01 0.01 0.02 0.02 0.03 0.03 0.02 0.02 0.02 0.02 0.02 0.03 0.03 0.04 0.04 0.03 0.03 0.04 0.03 0.03 0.03 0.04 0.05 0.05 0.04 0.04 0.04
0.00 0.00 0.01 0.01 0.01 0.01 0.01 0.01 0.02 0.02 0.01 0.01 0.01 0.01 0.01 0.02 0.02 0.02 0.04 0.03 0.02 0.02 0.03 0.03 0.02 0.03 0.03 0.03 0.03 0.04 0.04 0.04 0.03 0.02 0.02 0.03 0.03 0.04 0.05 0.04 0.05 0.04 0.03
0.00 0.00 0.01 0.01 0.01 0.01 0.01 0.01 0.02 0.02 0.02 0.02 0.02 0.02 0.02 0.02 0.02 0.03 0.04 0.03 0.02 0.02 0.02 0.02 0.02 0.02 0.02 0.02 0.02 0.03 0.04 0.04 0.03 0.02 0.02 0.02 0.03 0.03 0.04 0.04 0.04 0.05 0.04
0.00 0.01 0.01 0.01 0.01 0.00 0.00 0.01 0.01 0.02 0.02 0.02 0.01 0.02 0.02 0.01 0.02 0.04 0.03 0.03 0.02 0.03 0.03 0.02 0.02 0.02 0.02 0.02 0.01 0.02 0.02 0.02 0.03 0.03 0.03 0.03 0.03 0.04 0.04 0.04 0.04 0.05 0.05
0.00 0.01 0.01 0.01 0.00 0.00 0.00 0.00 0.01 0.01 0.02 0.01 0.01 0.01 0.01 0.01 0.01 0.02 0.03 0.02 0.02 0.02 0.02 0.02 0.02 0.02 0.02 0.02 0.02 0.02 0.02 0.02 0.02 0.03 0.03 0.03 0.03 0.04 0.05 0.04 0.04 0.04 0.04
0.00 0.00 0.00 0.01 0.00 0.00 0.01 0.01 0.01 0.01 0.01 0.01 0.01 0.01 0.01 0.01 0.01 0.03 0.02 0.02 0.01 0.01 0.01 0.02 0.02 0.02 0.01 0.01 0.02 0.02 0.02 0.01 0.02 0.02 0.02 0.03 0.03 0.04 0.05 0.05 0.06 0.05 0.03
0.00 0.01 0.01 0.01 0.01 0.01 0.00 0.01 0.01 0.01 0.01 0.01 0.01 0.01 0.01 0.01 0.01 0.01 0.01 0.01 0.01 0.01 0.01 0.01 0.01 0.01 0.01 0.02 0.01 0.01 0.01 0.01 0.01 0.02 0.03 0.03 0.04 0.04 0.04 0.05 0.05 0.05 0.04
0.01 0.02 0.01 0.01 0.01 0.01 0.01 0.01 0.01 0.01 0.01 0.01 0.01 0.00 0.00 0.00 0.01 0.01 0.01 0.01 0.01 0.00 0.01 0.01 0.01 0.02 0.03 0.03 0.02 0.01 0.01 0.01 0.01 0.02 0.04 0.05 0.05 0.07 0.09 0.08 0.09 0.10 0.08
0.01 0.02 0.02 0.01 0.01 0.01 0.01 0.01 0.01 0.01 0.02 0.02 0.01 0.01 0.00 0.00 0.01 0.01 0.01 0.01 0.01 0.01 0.01 0.01 0.01 0.02 0.03 0.04 0.03 0.01 0.01 0.01 0.01 0.02 0.04 0.05 0.07 0.08 0.08 0.08 0.08 0.08 0.08
0.01 0.01 0.01 0.01 0.01 0.01 0.01 0.02 0.02 0.02 0.02 0.02 0.01 0.01 0.01 0.01 0.00 0.00 0.00 0.00 0.01 0.01 0.01 0.01 0.01 0.02 0.02 0.03 0.04 0.03 0.03 0.03 0.01 0.01 0.02 0.03 0.04 0.05 0.06 0.05 0.04 0.03 0.03
0.01 0.01 0.01 0.01 0.00 0.00 0.00 0.01 0.01 0.01 0.01 0.01 0.02 0.01 0.02 0.02 0.02 0.02 0.02 0.01 0.01 0.00 0.00 0.01 0.01 0.01 0.02 0.03 0.04 0.04 0.04 0.03 0.02 0.02 0.02 0.02 0.02 0.03 0.03 0.03 0.02 0.02 0.02
0.00 0.00 0.00 0.00 0.00 0.00 0.01 0.01 0.01 0.01 0.01 0.01 0.01 0.01 0.02 0.02 0.02 0.02 0.02 0.01 0.01 0.01 0.01 0.01 0.01 0.01 0.02 0.02 0.03 0.04 0.04 0.03 0.03 0.02 0.02 0.03 0.02 0.02 0.02 0.02 0.02 0.03 0.03
0.00 0.00 0.00 0.00 0.00 0.00 0.01 0.02 0.03 0.03 0.03 0.03 0.02 0.02 0.02 0.02 0.01 0.01 0.01 0.01 0.01 0.01 0.00 0.01 0.01 0.01 0.01 0.01 0.01 0.03 0.04 0.04 0.03 0.03 0.03 0.03 0.03 0.02 0.02 0.02 0.02 0.03 0.03
0.00 0.00 0.00 0.00 0.00 0.00 0.00 0.01 0.02 0.03 0.04 0.04 0.04 0.04 0.03 0.02 0.02 0.02 0.02 0.01 0.01 0.01 0.01 0.01 0.01 0.02 0.02 0.01 0.01 0.02 0.02 0.03 0.03 0.03 0.04 0.04 0.03 0.02 0.02 0.02 0.02 0.02 0.02
0.00 0.00 0.00 0.00 0.00 0.01 0.01 0.01 0.02 0.02 0.02 0.03 0.03 0.03 0.03 0.03 0.03 0.03 0.03 0.03 0.03 0.03 0.02 0.01 0.02 0.02 0.02 0.01 0.02 0.02 0.02 0.03 0.03 0.03 0.03 0.03 0.03 0.02 0.02 0.03 0.03 0.02 0.03
0.00 0.00 0.00 0.00 0.00 0.01 0.02 0.02 0.02 0.03 0.03 0.03 0.04 0.04 0.04 0.04 0.03 0.04 0.04 0.04 0.04 0.04 0.03 0.03 0.03 0.03 0.02 0.02 0.02 0.02 0.03 0.03 0.03 0.03 0.03 0.02 0.02 0.02 0.02 0.02 0.03 0.03 0.03
0.01 0.01 0.00 0.00 0.00 0.01 0.02 0.02 0.02 0.03 0.03 0.03 0.04 0.03 0.03 0.04 0.03 0.02 0.03 0.03 0.03 0.03 0.03 0.04 0.03 0.03 0.02 0.02 0.02 0.02 0.03 0.03 0.03 0.04 0.03 0.03 0.03 0.02 0.02 0.03 0.03 0.03 0.03
0.01 0.01 0.01 0.01 0.01 0.02 0.02 0.02 0.02 0.03 0.04 0.04 0.02 0.01 0.02 0.02 0.02 0.02 0.02 0.02 0.02 0.02 0.03 0.03 0.03 0.03 0.03 0.02 0.02 0.02 0.02 0.03 0.03 0.03 0.03 0.03 0.04 0.03 0.02 0.03 0.03 0.03 0.03
0.01 0.01 0.02 0.02 0.03 0.03 0.03 0.03 0.03 0.03 0.02 0.01 0.01 0.01 0.02 0.02 0.03 0.02 0.02 0.02 0.02 0.02 0.03 0.03 0.03 0.03 0.02 0.02 0.02 0.03 0.03 0.03 0.02 0.02 0.03 0.04 0.04 0.04 0.03 0.03 0.03 0.03 0.03
0.02 0.02 0.02 0.03 0.03 0.03 0.03 0.03 0.02 0.01 0.01 0.01 0.02 0.02 0.02 0.02 0.02 0.02 0.01 0.02 0.02 0.03 0.02 0.02 0.02 0.02 0.02 0.02 0.02 0.03 0.03 0.03 0.02 0.02 0.02 0.03 0.04 0.04 0.04 0.03 0.03 0.04 0.04
0.02 0.03 0.03 0.03 0.03 0.03 0.03 0.02 0.02 0.02 0.02 0.02 0.02 0.02 0.02 0.02 0.02 0.02 0.02 0.03 0.03 0.02 0.02 0.02 0.02 0.02 0.02 0.02 0.01 0.02 0.02 0.02 0.02 0.02 0.03 0.03 0.03 0.03 0.04 0.04 0.05 0.05 0.04
0.03 0.03 0.03 0.03 0.03 0.02 0.02 0.02 0.02 0.02 0.02 0.01 0.01 0.01 0.01 0.01 0.02 0.02 0.03 0.02 0.02 0.01 0.01 0.01 0.01 0.01 0.02 0.02 0.02 0.02 0.02 0.02 0.02 0.02 0.02 0.02 0.02 0.03 0.03 0.04 0.04 0.05 0.05
0.05 0.04 0.04 0.04 0.03 0.02 0.02 0.02 0.02 0.02 0.02 0.01 0.01 0.01 0.01 0.02 0.03 0.03 0.03 0.02 0.01 0.01 0.01 0.02 0.02 0.02 0.02 0.02 0.02 0.03 0.02 0.02 0.02 0.02 0.02 0.02 0.03 0.02 0.04 0.05 0.06 0.05 0.05
0.05 0.05 0.05 0.04 0.03 0.02 0.02 0.02 0.02 0.01 0.01 0.01 0.02 0.02 0.03 0.03 0.03 0.02 0.02 0.02 0.02 0.02 0.02 0.02 0.02 0.02 0.02 0.02 0.02 0.02 0.02 0.01 0.01 0.01 0.01 0.02 0.03 0.03 0.03 0.04 0.05 0.06 0.06
MSLP
1014.20 1014.18 1014.16 1014.12 1014.02 1013.86 1013.64 1013.36 1013.05 1012.75 1012.47 1012.25 1012.08 1011.96 1011.87 1011.81 1011.75 1011.68 1011.60 1011.53 1011.48 1011.47 1011.51 1011.61 1011.77 1011.98 1012.21 1012.46 1012.71 1012.96 1013.20 1013.46 1013.75 1014.09 1014.49 1014.95 1015.47 1016.02 1016.57 1017.10 1017.58 1017.99 1018.33
1013.91 1013.85 1013.81 1013.76 1013.66 1013.51 1013.29 1013.03 1012.73 1012.41 1012.11 1011.84 1011.61 1011.42 1011.25 1011.11 1010.99 1010.87 1010.76 1010.68 1010.63 1010.63 1010.68 1010.79 1010.96 1011.16 1011.39 1011.64 1011.89 1012.16 1012.44 1012.76 1013.11 1013.53 1014.01 1014.54 1015.12 1015.72 1016.32 1016.87 1017.37 1017.81 1018.17
1013.87 1013.78 1013.70 1013.62 1013.50 1013.32 1013.10 1012.82 1012.50 1012.17 1011.83 1011.51 1011.22 1010.95 1010.72 1010.50 1010.31 1010.15 1010.01 1009.91 1009.86 1009.86 1009.92 1010.03 1010.19 1010.38 1010.60 1010.83 1011.09 1011.37 1011.67 1012.03 1012.44 1012.92 1013.47 1014.08 1014.71 1015.36 1015.98 1016.56 1017.07 1017.52 1017.89
1014.08 1013.95 1013.82 1013.68 1013.51 1013.29 1013.03 1012.71 1012.36 1011.99 1011.61 1011.24 1010.89 1010.56 1010.25 1009.97 1009.73 1009.51 1009.34 1009.22 1009.15 1009.15 1009.20 1009.30 1009.44 1009.61 1009.81 1010.03 1010.27 1010.55 1010.87 1011.26 1011.71 1012.24 1012.85 1013.50 1014.19 1014.86 1015.51 1016.11 1016.63 1017.08 1017.48
1014.47 1014.29 1014.11 1013.90 1013.65 1013.36 1013.03 1012.66 1012.26 1011.84 1011.42 1011.00 1010.60 1010.21 1009.85 1009.51 1009.21 1008.95 1008.74 1008.59 1008.50 1008.47 1008.50 1008.57 1008.69 1008.84 1009.01 1009.20 1009.42 1009.69 1010.02 1010.41 1010.90 1011.46 1012.10 1012.79 1013.51 1014.21 1014.88 1015.49 1016.03 1016.49 1016.90
1014.93 1014.71 1014.46 1014.17 1013.84 1013.46 1013.05 1012.61 1012.15 1011.69 1011.23 1010.77 1010.33 1009.90 1009.49 1009.11 1008.76 1008.45 1008.20 1008.00 1007.88 1007.81 1007.80 1007.84 1007.92 1008.03 1008.16 1008.33 1008.53 1008.77 1009.09 1009.49 1009.98 1010.56 1011.22 1011.93 1012.67 1013.39 1014.08 1014.71 1015.26 1015.75 1016.18
1015.35 1015.09 1014.77 1014.41 1013.99 1013.53 1013.04 1012.54 1012.03 1011.52 1011.03 1010.54 1010.07 1009.62 1009.18 1008.76 1008.37 1008.01 1007.71 1007.46 1007.28 1007.16 1007.11 1007.10 1007.13 1007.20 1007.29 1007.42 1007.59 1007.81 1008.11 1008.50 1008.98 1009.56 1010.22 1010.94 1011.69 1012.43 1013.14 1013.79 1014.37 1014.88 1015.34
1015.67 1015.37 1015.00 1014.56 1014.07 1013.54 1012.98 1012.43 1011.88 1011.34 1010.83 1010.34 1009.86 1009.39 1008.92 1008.47 1008.04 1007.64 1007.28 1006.97 1006.73 1006.55 1006.44 1006.37 1006.36 1006.37 1006.42 1006.51 1006.64 1006.84 1007.11 1007.47 1007.93 1008.49 1009.15 1009.86 1010.62 1011.37 1012.10 1012.77 1013.39 1013.94 1014.45
1015.85 1015.51 1015.10 1014.61 1014.06 1013.47 1012.88 1012.29 1011.72 1011.18 1010.67 1010.17 1009.69 1009.22 1008.74 1008.27 1007.80 1007.35 1006.93 1006.57 1006.26 1006.01 1005.83 1005.70 1005.63 1005.59 1005.60 1005.64 1005.74 1005.89 1006.13 1006.46 1006.89 1007.43 1008.06 1008.76 1009.52 1010.28 1011.03 1011.74 1012.39 1012.99 1013.54
1015.92 1015.56 1015.10 1014.57 1013.99 1013.37 1012.76 1012.15 1011.58 1011.05 1010.55 1010.07 1009.60 1009.13 1008.65 1008.16 1007.66 1007.16 1006.70 1006.27 1005.89 1005.58 1005.33 1005.14 1005.00 1004.91 1004.87 1004.87 1004.92 1005.03 1005.23 1005.51 1005.91 1006.41 1007.01 1007.69 1008.44 1009.21 1009.98 1010.72 1011.42 1012.07 1012.67
1015.93 1015.54 1015.06 1014.51 1013.90 1013.28 1012.65 1012.06 1011.50 1010.98 1010.50 1010.05 1009.60 1009.13 1008.65 1008.14 1007.62 1007.09 1006.57 1006.09 1005.65 1005.27 1004.96 1004.71 1004.51 1004.37 1004.27 1004.22 1004.22 1004.29 1004.43 1004.67 1005.01 1005.46 1006.03 1006.69 1007.42 1008.19 1008.98 1009.76 1010.50 1011.19 1011.84
1015.94 1015.52 1015.02 1014.45 1013.84 1013.21 1012.60 1012.02 1011.48 1010.99 1010.53 1010.10 1009.67 1009.22 1008.74 1008.23 1007.68 1007.13 1006.57 1006.04 1005.55 1005.11 1004.74 1004.43 1004.17 1003.97 1003.82 1003.71 1003.66 1003.66 1003.75 1003.92 1004.21 1004.61 1005.13 1005.76 1006.47 1007.25 1008.05 1008.85 1009.63 1010.37 1011.06
1015.97 1015.53 1015.01 1014.43 1013.82 1013.19 1012.59 1012.03 1011.52 1011.05 1010.62 1010.21 1009.80 1009.36 1008.89 1008.38 1007.83 1007.25 1006.67 1006.10 1005.56 1005.07 1004.65 1004.28 1003.96 1003.70 1003.49 1003.32 1003.20 1003.15 1003.17 1003.28 1003.51 1003.85 1004.32 1004.91 1005.60 1006.36 1007.17 1007.99 1008.79 1009.56 1010.29
1016.03 1015.57 1015.03 1014.44 1013.83 1013.22 1012.63 1012.09 1011.60 1011.15 1010.75 1010.36 1009.96 1009.54 1009.08 1008.57 1008.02 1007.43 1006.82 1006.23 1005.65 1005.12 1004.64 1004.22 1003.85 1003.52 1003.25 1003.02 1002.84 1002.72 1002.67 1002.73 1002.89 1003.17 1003.59 1004.14 1004.79 1005.53 1006.33 1007.16 1007.98 1008.77 1009.50
1016.09 1015.60 1015.06 1014.46 1013.86 1013.26 1012.69 1012.16 1011.69 1011.27 1010.88 1010.51 1010.14 1009.73 1009.28 1008.77 1008.22 1007.62 1007.01 1006.39 1005.78 1005.21 1004.68 1004.20 1003.78 1003.39 1003.06 1002.77 1002.53 1002.35 1002.24 1002.24 1002.34 1002.57 1002.94 1003.43 1004.05 1004.77 1005.55 1006.36 1007.18 1007.97 1008.71
1016.09 1015.60 1015.05 1014.47 1013.87 1013.28 1012.73 1012.23 1011.78 1011.38 1011.01 1010.66 1010.30 1009.90 1009.46 1008.96 1008.41 1007.81 1007.18 1006.53 1005.90 1005.29 1004.72 1004.19 1003.71 1003.27 1002.88 1002.54 1002.25 1002.02 1001.87 1001.82 1001.87 1002.06 1002.37 1002.83 1003.40 1004.07 1004.82 1005.61 1006.40 1007.17 1007.90
1016.03 1015.54 1015.00 1014.43 1013.85 1013.29 1012.77 1012.29 1011.87 1011.49 1011.14 1010.80 1010.45 1010.07 1009.63 1009.13 1008.58 1007.97 1007.32 1006.65 1005.98 1005.33 1004.72 1004.14 1003.62 1003.14 1002.71 1002.33 1002.01 1001.75 1001.57 1001.49 1001.51 1001.65 1001.92 1002.33 1002.85 1003.47 1004.17 1004.91 1005.67 1006.40 1007.10
1015.89 1015.42 1014.90 1014.36 1013.82 1013.29 1012.80 1012.36 1011.97 1011.61 1011.29 1010.96 1010.62 1010.24 1009.81 1009.30 1008.73 1008.11 1007.43 1006.74 1006.03 1005.35 1004.69 1004.07 1003.51 1003.00 1002.55 1002.15 1001.82 1001.55 1001.36 1001.26 1001.26 1001.38 1001.61 1001.97 1002.43 1002.99 1003.62 1004.30 1004.99 1005.68 1006.33
1015.71 1015.27 1014.79 1014.29 1013.79 1013.31 1012.87 1012.47 1012.12 1011.79 1011.49 1011.18 1010.84 1010.46 1010.01 1009.50 1008.91 1008.25 1007.55 1006.81 1006.07 1005.34 1004.65 1004.01 1003.42 1002.89 1002.43 1002.04 1001.71 1001.45 1001.27 1001.17 1001.16 1001.25 1001.44 1001.74 1002.14 1002.62 1003.18 1003.77 1004.39 1005.01 1005.61
1015.52 1015.12 1014.69 1014.25 1013.81 1013.39 1013.01 1012.66 1012.34 1012.05 1011.76 1011.47 1011.13 1010.74 1010.28 1009.74 1009.12 1008.43 1007.69 1006.92 1006.14 1005.37 1004.65 1003.98 1003.38 1002.85 1002.39 1002.01 1001.71 1001.47 1001.30 1001.21 1001.19 1001.26 1001.41 1001.65 1001.97 1002.36 1002.82 1003.32 1003.85 1004.39 1004.92
1015.37 1015.02 1014.65 1014.28 1013.91 1013.55 1013.23 1012.93 1012.66 1012.40 1012.13 1011.84 1011.51 1011.10 1010.62 1010.05 1009.40 1008.68 1007.90 1007.09 1006.27 1005.48 1004.73 1004.04 1003.43 1002.91 1002.47 1002.11 1001.82 1001.61 1001.46 1001.37 1001.34 1001.37 1001.47 1001.64 1001.87 1002.17 1002.52 1002.91 1003.35 1003.80 1004.27
1015.27 1014.98 1014.68 1014.38 1014.08 1013.80 1013.53 1013.29 1013.06 1012.82 1012.58 1012.29 1011.95 1011.54 1011.04 1010.44 1009.76 1009.01 1008.20 1007.35 1006.51 1005.69 1004.93 1004.23 1003.62 1003.10 1002.67 1002.33 1002.06 1001.86 1001.71 1001.61 1001.56 1001.55 1001.59 1001.67 1001.81 1001.99 1002.23 1002.52 1002.86 1003.23 1003.63
1015.23 1015.00 1014.77 1014.53 1014.31 1014.09 1013.89 1013.69 1013.49 1013.29 1013.05 1012.78 1012.43 1012.01 1011.50 1010.89 1010.19 1009.42 1008.60 1007.74 1006.88 1006.05 1005.27 1004.57 1003.96 1003.44 1003.01 1002.67 1002.40 1002.19 1002.03 1001.91 1001.81 1001.74 1001.70 1001.70 1001.73 1001.81 1001.95 1002.14 1002.38 1002.67 1003.02
1015.19 1015.04 1014.87 1014.71 1014.55 1014.39 1014.24 1014.08 1013.91 1013.73 1013.51 1013.24 1012.90 1012.48 1011.97 1011.37 1010.68 1009.91 1009.09 1008.24 1007.38 1006.55 1005.77 1005.07 1004.45 1003.91 1003.47 1003.12 1002.82 1002.58 1002.38 1002.21 1002.05 1001.91 1001.79 1001.70 1001.64 1001.62 1001.66 1001.76 1001.93 1002.17 1002.47
1015.14 1015.06 1014.96 1014.87 1014.76 1014.65 1014.53 1014.41 1014.26 1014.09 1013.89 1013.63 1013.31 1012.91 1012.43 1011.85 1011.20 1010.46 1009.67 1008.85 1008.01 1007.19 1006.42 1005.71 1005.07 1004.52 1004.04 1003.65 1003.31 1003.01 1002.75 1002.51 1002.28 1002.07 1001.87 1001.69 1001.54 1001.45 1001.42 1001.46 1001.57 1001.77 1002.05
1015.05 1015.03 1015.01 1014.97 1014.91 1014.83 1014.74 1014.63 1014.50 1014.35 1014.16 1013.92 1013.63 1013.28 1012.84 1012.32 1011.73 1011.05 1010.32 1009.54 1008.75 1007.96 1007.19 1006.48 1005.82 1005.23 1004.71 1004.26 1003.85 1003.49 1003.15 1002.84 1002.53 1002.24 1001.97 1001.72 1001.51 1001.37 1001.29 1001.29 1001.38 1001.56 1001.84
Thickness
5792 5789 5787 5784 5781 5778 5775 5773 5771 5768 5766 5763 5761 5759 5757 5755 5753 5750 5749 5747 5744 5742 5740 5738 5736 5734 5734 5733 5732 5729 5727 5725 5719 5720 5720 5717 5714 5712 5711 5708 5707 5704 5701
5793 5790 5786 5784 5781 5778 5775 5773 5770 5768 5765 5762 5760 5757 5756 5754 5751 5748 5746 5744 5742 5739 5737 5735 5733 5732 5729 5728 5727 5725 5723 5721 5717 5713 5713 5711 5709 5707 5705 5703 5702 5701 5698
5793 5789 5786 5783 5780 5777 5775 5772 5769 5766 5763 5761 5758 5755 5753 5751 5749 5746 5743 5741 5739 5737 5734 5732 5730 5728 5725 5724 5722 5721 5720 5719 5715 5711 5709 5707 5705 5704 5701 5699 5698 5694 5694
5792 5788 5784 5782 5779 5777 5774 5771 5768 5765 5762 5759 5756 5753 5750 5748 5746 5743 5741 5738 5736 5734 5731 5729 5727 5724 5721 5719 5718 5716 5715 5712 5709 5707 5705 5703 5700 5699 5696 5694 5692 5691 5689
5789 5786 5783 5781 5778 5775 5772 5769 5766 5763 5760 5757 5753 5750 5748 5746 5743 5740 5737 5735 5732 5730 5728 5725 5723 5720 5716 5714 5714 5711 5709 5707 5705 5703 5701 5699 5696 5692 5691 5690 5687 5685 5684
5787 5784 5781 5778 5775 5772 5769 5766 5763 5760 5757 5754 5750 5747 5745 5743 5737 5733 5732 5731 5728 5726 5723 5721 5719 5716 5712 5708 5706 5704 5702 5701 5700 5697 5696 5693 5689 5688 5686 5684 5682 5679 5677
5783 5781 5778 5775 5772 5769 5768 5764 5760 5756 5753 5749 5747 5744 5741 5737 5732 5728 5725 5725 5724 5721 5719 5717 5717 5715 5709 5707 5702 5699 5697 5694 5692 5691 5690 5688 5686 5684 5680 5678 5674 5672 5670
5779 5776 5774 5771 5768 5766 5763 5759 5756 5752 5749 5745 5742 5739 5736 5732 5727 5723 5720 5720 5719 5717 5715 5712 5709 5707 5705 5701 5699 5697 5695 5693 5689 5687 5685 5683 5682 5679 5675 5672 5669 5666 5665
5774 5772 5770 5768 5764 5761 5758 5754 5751 5748 5744 5741 5738 5734 5731 5727 5722 5718 5714 5715 5714 5712 5710 5708 5704 5701 5696 5693 5692 5691 5689 5688 5685 5681 5678 5676 5674 5671 5669 5667 5664 5660 5658
5771 5768 5766 5763 5759 5756 5753 5750 5747 5743 5739 5737 5733 5730 5726 5722 5717 5713 5708 5711 5709 5707 5705 5703 5698 5694 5690 5686 5686 5684 5682 5682 5680 5678 5674 5670 5669 5666 5663 5661 5659 5655 5653
5768 5764 5761 5758 5755 5752 5748 5745 5741 5738 5734 5731 5727 5724 5721 5717 5712 5708 5704 5704 5704 5702 5701 5700 5696 5688 5683 5680 5678 5679 5676 5674 5674 5672 5670 5668 5665 5662 5659 5655 5652 5650 5648
5761 5758 5755 5753 5751 5747 5742 5738 5736 5732 5728 5725 5721 5718 5717 5713 5709 5704 5700 5697 5696 5696 5694 5693 5690 5682 5678 5674 5672 5671 5669 5666 5668 5667 5665 5662 5659 5656 5654 5651 5647 5644 5641
5753 5751 5749 5747 5744 5741 5737 5734 5730 5727 5725 5722 5718 5715 5712 5710 5705 5699 5695 5691 5688 5687 5688 5684 5680 5675 5671 5670 5666 5665 5663 5663 5662 5660 5658 5656 5654 5651 5647 5644 5641 5638 5635
5747 5745 5743 5741 5738 5735 5732 5730 5727 5724 5721 5717 5714 5711 5708 5704 5701 5697 5692 5688 5682 5681 5680 5676 5673 5670 5667 5664 5663 5661 5659 5657 5655 5653 5651 5649 5647 5644 5641 5639 5636 5633 5630
5741 5740 5738 5736 5733 5729 5727 5725 5723 5720 5717 5711 5708 5706 5701 5697 5694 5688 5686 5684 5681 5678 5673 5672 5670 5669 5666 5663 5660 5658 5655 5651 5648 5645 5643 5641 5639 5637 5634 5633 5629 5626 5623
5735 5734 5733 5732 5729 5726 5722 5718 5714 5712 5707 5703 5699 5696 5694 5689 5684 5679 5675 5672 5669 5666 5665 5666 5664 5663 5660 5657 5655 5652 5648 5645 5641 5638 5636 5633 5631 5629 5627 5625 5623 5620 5618
5729 5728 5727 5726 5723 5720 5717 5714 5709 5704 5698 5695 5692 5688 5683 5679 5676 5672 5667 5663 5660 5658 5660 5660 5658 5655 5653 5651 5648 5645 5642 5639 5635 5632 5629 5627 5625 5623 5621 5618 5616 5614 5611
5724 5722 5720 5719 5717 5715 5712 5710 5706 5702 5697 5692 5686 5681 5677 5672 5669 5665 5660 5657 5657 5654 5655 5654 5650 5648 5646 5644 5641 5638 5635 5632 5629 5625 5623 5621 5619 5617 5614 5612 5609 5606 5605
5718 5717 5715 5713 5712 5709 5706 5704 5701 5697 5693 5689 5684 5678 5670 5666 5661 5658 5654 5655 5655 5651 5649 5647 5644 5642 5640 5638 5635 5632 5629 5625 5622 5619 5616 5613 5611 5609 5607 5605 5602 5597 5596
5710 5707 5706 5706 5705 5703 5700 5698 5695 5691 5687 5683 5679 5675 5668 5663 5660 5656 5651 5651 5649 5646 5643 5640 5637 5636 5634 5631 5628 5625 5622 5619 5615 5612 5609 5607 5604 5602 5600 5598 5596 5593 5591
5703 5701 5697 5698 5698 5695 5693 5691 5688 5685 5680 5676 5672 5668 5660 5659 5656 5651 5648 5645 5642 5639 5636 5633 5631 5629 5626 5623 5620 5618 5616 5613 5608 5605 5603 5600 5598 5595 5593 5592 5589 5587 5585
5694 5694 5692 5691 5690 5687 5685 5682 5680 5677 5673 5668 5664 5659 5651 5652 5649 5645 5641 5637 5634 5632 5629 5626 5623 5621 5618 5615 5613 5611 5608 5605 5602 5599 5595 5593 5591 5588 5586 5584 5583 5580 5578
5685 5685 5683 5682 5681 5676 5674 5673 5670 5668 5665 5661 5657 5652 5647 5643 5641 5636 5632 5630 5627 5624 5621 5618 5615 5613 5610 5607 5605 5603 5600 5597 5593 5590 5588 5586 5584 5582 5579 5576 5574 5572 5570
5676 5676 5674 5673 5671 5669 5667 5664 5662 5659 5656 5652 5648 5644 5640 5635 5632 5629 5626 5623 5620 5617 5614 5611 5608 5605 5602 5599 5597 5594 5590 5587 5583 5582 5579 5578 5576 5575 5572 5569 5567 5566 5564
5667 5667 5665 5663 5662 5661 5660 5658 5656 5653 5649 5644 5641 5637 5633 5629 5626 5623 5619 5616 5612 5609 5606 5602 5600 5597 5594 5591 5589 5586 5581 5578 5575 5573 5571 5570 5568 5566 5564 5562 5561 5559 5557
5659 5659 5658 5656 5655 5653 5652 5651 5648 5644 5641 5637 5634 5630 5627 5624 5620 5617 5614 5610 5606 5603 5599 5595 5593 5590 5587 5585 5581 5577 5574 5571 5568 5564 5563 5563 5561 5559 5556 5554 5552 5551 5549